Overview Statistics Trail Chart Weather Telemetry Raw packets
 

This is the latest recevied weather packets stored in our database for station/object KBTL-WX. If no packets are shown the sender has not sent any weather packets the latest 10 day(s).

<< 7 8 9 10 11 12 13 >>
Time Temp. Humidity Pressure Rain* Wind** Luminosity Snow
1777754713 8.89° C 39% 985.2 hPa 0 mm - - -
1777753831 8.89° C 37% 985.5 hPa 0 mm - - -
1777752913 8.89° C 37% 985.5 hPa 0 mm - - -
1777752035 8.33° C 37% 985.5 hPa 0 mm - - -
1777751113 7.78° C 42% 985.6 hPa 0 mm - - -
1777750226 7.78° C 42% 985.6 hPa 0 mm - - -
1777749313 8.33° C 42% 985.7 hPa 0 mm - - -
1777748436 7.78° C 42% 985.7 hPa 0 mm - - -
1777747513 7.22° C 44% 985.3 hPa 0 mm - - -
1777746632 7.22° C 44% 985.5 hPa 0 mm - - -
1777745713 7.78° C 44% 985.5 hPa 0 mm - - -
1777744838 7.78° C 44% 985.5 hPa 0 mm - - -
1777743913 7.78° C 41% 986 hPa 0 mm - - -
1777743028 7.78° C 40% 985.9 hPa 0 mm - - -
1777742114 8.33° C 40% 986 hPa 0 mm - - -
1777741233 7.78° C 40% 986 hPa 0 mm - - -
1777740314 7.78° C 42% 985.9 hPa 0 mm - - -
1777739432 7.22° C 41% 985.6 hPa 0 mm - - -
1777738514 7.22° C 41% 985.5 hPa 0 mm - - -
1777737638 6.67° C 41% 985.5 hPa 0 mm - - -
1777736713 6.67° C 45% 985 hPa 0 mm - - -
1777735828 6.11° C 50% 985.4 hPa 0 mm - - -
1777734914 5.56° C 50% 985.4 hPa 0 mm - - -
1777734039 5.56° C 50% 985.4 hPa 0 mm - - -
1777733114 5.56° C 56% 985.5 hPa 0 mm - - -

* Rain latest hour (hover to see other rain measurements)
** Current wind speed in m/s (hover to see current wind gust speed)